Погода в Меловом

Россия / Белгородская область     50°54′27″N   36°04′06″E
темп.,
°C
ветер,
м/с
пор.,
м/с
влажн.,
%
обл.,
%
осадки,
мм/ч
давл.,
гПа
погр.,
м
6 мая, чт
чт600:00+13ююз51360100 0.0 1012376
03:00+12ю51367100 0.0 1012519
06:00+10ю51277100 0.0 1012391
09:00+12ю71359100 0.0 1011820
12:00+15ююз101350100 0.0 10101299
15:00+17ююз8125399 0.0 10101830
18:00+15юз51066100 0.0 10091122
21:00+9сз51089100 0.1 1012577
7 мая, пт
пт700:00+7с1495100 3.3 1013224
03:00+6з2295100 3.4 101424
06:00+6з259479 0.0 1015164
09:00+11зсз22725 0.0 1016556
12:00+15юз12435 0.0 10161646
15:00+15ююз4444100 0.0 10151943
18:00+15ю3559100 0.0 1014370
21:00+11ююв4870100 0.0 1014141
8 мая, сб
сб800:00+11ююв61463100 0.1 1012455
03:00+11ююв81770100 0.9 1010641
06:00+11ю81779100 0.1 1008813
09:00+11ю81692100 3.8 1007930
12:00+11зсз71190100 2.5 1008714
15:00+11з7978100 2.6 1010993
18:00+9з91177100 0.2 1012942
21:00+6зсз41181100 0.2 1015631
9 мая, вс
вс900:00+6зсз41183100 0.0 1016516
03:00+3сз4118799 0.0 1018354
06:00+3сз3108674 0.0 1019335
09:00+8сз6967100 0.0 1020912
12:00+11ссз685572 0.1 10211982
15:00+12ссз894698 0.1 10222344
18:00+11с69575 0.0 10231752
21:00+6с33725 0.0 102631
10 мая, пн
пн1000:00+4ссз33760 0.0 102824
03:00+3ссз34815 0.0 102959
06:00+3с38785 0.0 1030171
09:00+10с59575 0.0 1030954
12:00+13ссв68465 0.0 10301573
15:00+14ссв79465 0.0 10291770
18:00+13ссв69595 0.0 10291253
21:00+8ссв410770 0.0 1029155